Location: Napier
(39.4830°S, 176.9170°E)
Time: 02:43:32
(UTC+13:00)

Cosmos 2360 Rocket - Pass Details

Date: 24 January 2019
Orbit: 833 x 846 km, 71.0° (Epoch: 22 February)

Event Time Altitude Azimuth Distance (km) Brightness Sun altitude
Exits shadow 22:43:34 - 334° (NNW) 2,901 4.8 -20.3°
Reaches altitude 10° 22:44:43 10° 333° (NNW) 2,470 4.4 -20.5°
Maximum altitude 22:50:24 78° 246° (WSW) 878 2.3 -21.2°
Drops below altitude 10° 22:56:09 10° 160° (SSE) 2,496 5.0 -21.9°
Sets 22:58:38 0° 158° (SSE) 3,436 5.8 -22.1°
